DW5657 Weather Reports


Display with metric or nautical units.
time (UTC)temp
F
wind
direction
speed
MPH
gust
MPH
rain 1hr
in
rain 24hr
in
rain mn
in
humidity
%
barometer
mb
20260906114203 66 350 0.0 0.0 0.00 0.75 0.00 87 1013.9
20260906113204 66 350 0.0 2.0 0.00 0.75 0.00 87 1013.7
20260906112704 66 344 0.0 1.0 0.00 0.75 0.00 87 1013.7
20260906112203 66 350 0.0 0.0 0.00 0.75 0.00 88 1013.7
20260906111704 66 350 0.0 0.0 0.00 0.75 0.00 88 1013.5
20260906111204 66 350 0.0 0.0 0.00 0.75 0.00 88 1013.4
20260906110704 66 350 0.0 0.0 0.00 0.76 0.00 88 1013.4
20260906110204 66 350 0.0 0.0 0.00 0.76 0.00 88 1013.4
20260906105704 66 350 0.0 0.0 0.00 0.76 0.00 88 1013.4
20260906105204 66 350 0.0 0.0 0.00 0.76 0.00 89 1013.3
20260906104704 67 350 0.0 0.0 0.00 0.76 0.00 89 1013.3
20260906103203 67 313 0.0 0.0 0.00 0.76 0.00 90 1013.1
20260906102704 67 318 0.0 0.0 0.00 0.76 0.00 90 1013.0
20260906102204 67 331 0.0 0.0 0.00 0.76 0.00 90 1013.0
20260906101705 67 335 0.0 0.0 0.00 0.76 0.00 90 1013.0
20260906101205 67 9 0.0 0.0 0.00 0.76 0.00 90 1013.0
20260906095704 67 353 0.0 0.0 0.00 0.76 0.00 91 1012.8
20260906095204 68 293 0.0 1.0 0.00 0.76 0.00 91 1012.8
20260906094704 68 303 0.0 1.0 0.00 0.76 0.00 92 1012.8
20260906093704 68 293 0.0 2.0 0.00 0.76 0.00 92 1012.7
20260906093205 68 0 0.0 1.0 0.00 0.76 0.00 93 1012.6
20260906091204 68 350 1.0 3.0 0.00 0.76 0.00 93 1012.4
20260906090704 68 82 0.0 3.0 0.00 0.76 0.00 93 1012.3
20260906085704 69 287 0.0 0.0 0.00 0.76 0.00 93 1012.3
20260906085204 69 304 0.0 0.0 0.00 0.76 0.00 93 1012.3
20260906084704 69 40 0.0 1.0 0.00 0.76 0.00 93 1012.3
20260906084204 69 20 0.0 2.0 0.00 0.76 0.00 93 1012.2
20260906083704 69 13 0.0 2.0 0.00 0.76 0.00 93 1012.3
20260906083203 69 30 0.0 1.0 0.00 0.76 0.00 94 1012.4
20260906082705 69 17 0.0 0.0 0.00 0.76 0.00 94 1012.3
20260906082203 70 13 0.0 0.0 0.00 0.76 0.00 94 1012.3
20260906081704 70 14 0.0 0.0 0.00 0.76 0.00 94 1012.2
20260906081204 70 3 0.0 0.0 0.00 0.76 0.00 94 1012.1
20260906080703 70 346 0.0 2.0 0.00 0.76 0.00 94 1012.1
20260906080204 70 9 0.0 0.0 0.00 0.76 0.00 94 1012.1
20260906075704 70 323 0.0 0.0 0.00 0.76 0.00 94 1012.1
20260906075204 71 323 0.0 0.0 0.00 0.76 0.00 94 1012.1
20260906074704 71 350 0.0 0.0 0.00 0.76 0.00 94 1012.1
20260906073204 71 329 0.0 0.0 0.00 0.76 0.00 95 1012.1
20260906072704 71 350 0.0 0.0 0.00 0.76 0.00 95 1012.1
20260906072204 71 343 0.0 2.0 0.00 0.76 0.00 95 1012.2
20260906071704 71 339 0.0 2.0 0.00 0.76 0.00 94 1012.3
20260906071204 71 336 0.0 0.0 0.00 0.76 0.00 95 1012.3
20260906070705 71 336 0.0 0.0 0.00 0.76 0.00 95 1012.3
20260906070204 71 336 0.0 0.0 0.00 0.76 0.00 94 1012.3
20260906065703 71 336 0.0 0.0 0.00 0.76 0.00 94 1012.3
20260906065205 71 313 0.0 1.0 0.00 0.76 0.00 94 1012.3
20260906064704 71 347 0.0 0.0 0.00 0.76 0.00 94 1012.3
20260906064204 71 347 0.0 0.0 0.00 0.76 0.00 94 1012.2
20260906063705 71 335 0.0 0.0 0.00 0.76 0.00 95 1012.2
20260906063204 71 344 0.0 0.0 0.00 0.76 0.00 95 1012.2
20260906062703 72 344 0.0 2.0 0.00 0.76 0.00 95 1012.2
20260906062204 72 337 0.0 2.0 0.00 0.76 0.00 95 1012.2
20260906061704 72 5 0.0 0.0 0.00 0.76 0.00 95 1012.2
20260906060704 72 5 0.0 0.0 0.00 0.76 0.00 95 1012.2
20260906060204 72 5 0.0 0.0 0.00 0.76 0.00 95 1012.3
20260906055204 72 5 0.0 0.0 0.00 0.76 0.00 95 1012.3
20260906054705 72 55 0.0 0.0 0.00 0.76 0.00 95 1012.2
20260906054204 72 55 0.0 0.0 0.00 0.76 0.00 95 1012.2
20260906053705 72 55 0.0 0.0 0.00 0.76 0.00 95 1012.2
20260906053203 72 55 0.0 1.0 0.00 0.76 0.00 95 1012.2
20260906052704 72 314 0.0 3.0 0.00 0.76 0.00 95 1012.2
20260906052204 72 30 0.0 0.0 0.00 0.76 0.00 95 1012.3
20260906051703 73 30 0.0 0.0 0.00 0.76 0.00 95 1012.2
20260906051203 73 49 0.0 0.0 0.00 0.76 0.00 95 1012.2
20260906050704 73 61 0.0 0.0 0.00 0.76 0.00 95 1012.1
20260906050204 73 61 0.0 0.0 0.00 0.76 0.00 95 1012.0
20260906045703 73 61 0.0 0.0 0.00 0.76 0.00 95 1012.0
20260906044204 73 64 0.0 0.0 0.00 0.76 0.00 95 1011.7
20260906043704 73 92 0.0 0.0 0.00 0.76 0.00 95 1011.7
20260906043205 73 92 0.0 0.0 0.00 0.76 0.00 95 1011.6
20260906042704 73 92 0.0 0.0 0.00 0.76 0.00 95 1011.5
20260906042205 73 126 0.0 0.0 0.00 0.76 0.00 95 1011.5
20260906041704 73 126 0.0 0.0 0.00 0.76 0.00 95 1011.5
20260906041204 73 126 0.0 0.0 0.00 0.76 0.00 95 1011.5
20260906040704 73 126 0.0 0.0 0.00 0.76 0.00 95 1011.5
20260906040204 73 126 0.0 0.0 0.00 0.76 0.00 95 1011.4
20260906035705 73 126 0.0 0.0 0.00 0.76 0.76 95 1011.5
20260906035204 73 126 0.0 0.0 0.00 0.76 0.76 95 1011.5
20260906034704 72 126 0.0 0.0 0.00 0.76 0.76 95 1011.5
20260906033205 72 126 0.0 0.0 0.00 0.76 0.76 95 1011.3
20260906032704 72 126 0.0 0.0 0.00 0.76 0.76 95 1011.4
20260906032205 72 126 0.0 0.0 0.00 0.76 0.76 94 1011.4
20260906031704 72 126 0.0 0.0 0.00 0.76 0.76 94 1011.5
20260906031204 72 126 0.0 0.0 0.00 0.76 0.76 94 1011.5
20260906030704 72 126 0.0 0.0 0.00 0.76 0.76 94 1011.5
20260906030203 71 126 0.0 0.0 0.01 0.76 0.76 94 1011.4
20260906025704 71 126 0.0 0.0 0.01 0.76 0.76 94 1011.5
20260906025203 71 126 0.0 0.0 0.01 0.76 0.76 94 1011.5
20260906024703 71 126 0.0 0.0 0.01 0.76 0.76 94 1011.4
20260906024203 71 126 0.0 0.0 0.01 0.76 0.76 94 1011.3
20260906023705 71 126 0.0 0.0 0.01 0.76 0.76 94 1011.4
20260906022703 71 126 0.0 0.0 0.01 0.76 0.76 94 1011.5
20260906022204 71 126 0.0 0.0 0.01 0.76 0.76 94 1011.4
20260906021704 71 78 0.0 0.0 0.01 0.76 0.76 94 1011.5
20260906021205 71 166 0.0 0.0 0.01 0.76 0.76 93 1011.6
20260906020704 71 166 0.0 0.0 0.01 0.76 0.76 93 1011.7
20260906020204 71 166 0.0 0.0 0.00 0.75 0.75 93 1011.6
20260906015704 71 166 0.0 0.0 0.00 0.75 0.75 93 1011.7
20260906015205 71 166 0.0 0.0 0.00 0.75 0.75 94 1011.7
20260906014703 71 166 0.0 0.0 0.00 0.75 0.75 93 1011.7
20260906014205 71 166 0.0 0.0 0.00 0.75 0.75 93 1011.7
20260906013705 71 166 0.0 0.0 0.00 0.75 0.75 93 1011.9
20260906013205 71 248 0.0 0.0 0.00 0.75 0.75 93 1011.9
20260906012704 71 65 0.0 2.0 0.00 0.75 0.75 93 1011.9
20260906012204 71 153 0.0 0.0 0.00 0.75 0.75 93 1011.9
20260906011704 71 179 0.0 0.0 0.00 0.75 0.75 93 1011.6
20260906011204 71 237 0.0 0.0 0.00 0.75 0.75 93 1011.4
20260906010704 71 237 0.0 2.0 0.00 0.75 0.75 92 1011.3
20260906010204 71 217 1.0 2.0 0.00 0.75 0.75 92 1011.1
20260906005705 71 177 0.0 0.0 0.00 0.75 0.75 91 1010.8
20260906005204 71 86 0.0 0.0 0.00 0.75 0.75 91 1010.6
20260906004704 71 86 0.0 0.0 0.00 0.75 0.75 91 1010.6
20260906004204 71 86 0.0 0.0 0.00 0.75 0.75 91 1010.6
20260906003204 71 86 0.0 0.0 0.20 0.75 0.75 90 1010.7
20260906002704 71 86 0.0 0.0 0.39 0.75 0.75 90 1010.8
20260906002204 71 86 0.0 2.0 0.61 0.75 0.75 90 1010.7
20260906001704 71 97 1.0 5.0 0.73 0.75 0.75 89 1010.6
20260906001203 72 94 1.0 6.0 0.73 0.75 0.75 89 1010.6
20260906000704 72 93 2.0 6.0 0.73 0.75 0.75 89 1010.6
20260906000205 72 217 0.0 0.0 0.73 0.75 0.75 87 1010.3
20260905235704 72 217 0.0 5.0 0.73 0.75 0.75 86 1010.1
20260905235204 73 218 1.0 5.0 0.73 0.75 0.75 85 1010.0
20260905234704 74 235 2.0 5.0 0.73 0.75 0.75 83 1010.5
20260905234204 74 350 0.0 0.0 0.73 0.75 0.75 81 1010.7
20260905233704 75 350 2.0 7.0 0.68 0.70 0.70 80 1011.1
20260905233204 77 312 3.0 9.0 0.53 0.55 0.55 77 1012.1
20260905232704 80 328 4.0 20.0 0.34 0.36 0.36 72 1011.2
20260905232204 84 332 7.0 20.0 0.12 0.14 0.14 68 1012.0
20260905231704 87 37 1.0 12.0 0.00 0.02 0.02 70 1011.5
20260905231204 87 32 1.0 6.0 0.00 0.02 0.02 69 1010.5
20260905230705 87 32 1.0 3.0 0.00 0.02 0.02 68 1010.2
20260905225705 88 30 1.0 2.0 0.00 0.02 0.02 67 1009.7
20260905225204 88 32 0.0 2.0 0.00 0.02 0.02 66 1009.8
20260905224705 89 38 0.0 2.0 0.00 0.02 0.02 66 1009.8
20260905224204 89 47 0.0 3.0 0.00 0.02 0.02 65 1010.0
20260905223704 89 57 0.0 3.0 0.00 0.02 0.02 64 1010.0
20260905223205 90 61 0.0 0.0 0.00 0.02 0.02 63 1010.0
20260905222204 90 61 0.0 0.0 0.00 0.02 0.02 62 1009.9
20260905221704 90 38 0.0 1.0 0.00 0.02 0.02 62 1009.8
20260905221204 90 231 0.0 3.0 0.00 0.02 0.02 61 1010.0
20260905220704 90 344 0.0 0.0 0.00 0.02 0.02 62 1009.9
20260905220204 90 2 0.0 0.0 0.00 0.02 0.02 62 1009.8
20260905215704 90 231 0.0 0.0 0.00 0.02 0.02 61 1009.7
20260905215204 90 214 1.0 3.0 0.00 0.02 0.02 61 1009.7
20260905214704 91 230 1.0 3.0 0.00 0.03 0.02 61 1009.6
20260905214204 91 294 1.0 3.0 0.00 0.04 0.02 61 1009.6
20260905213704 91 260 0.0 3.0 0.00 0.08 0.02 62 1009.6
20260905212704 90 238 2.0 5.0 0.00 0.11 0.02 61 1009.8
20260905212204 90 19 1.0 3.0 0.00 0.11 0.02 61 1009.9
20260905211705 90 232 0.0 1.0 0.00 0.11 0.02 61 1009.9
20260905211203 90 322 0.0 1.0 0.00 0.11 0.02 62 1010.0
20260905210704 90 330 1.0 3.0 0.00 0.11 0.02 62 1010.0
20260905210204 90 256 0.0 0.0 0.00 0.11 0.02 63 1010.0
20260905205704 90 229 0.0 1.0 0.00 0.11 0.02 62 1010.1
20260905205203 89 93 0.0 1.0 0.00 0.11 0.02 65 1010.1
20260905204705 89 124 0.0 1.0 0.00 0.11 0.02 63 1010.2
20260905204205 89 328 0.0 1.0 0.00 0.11 0.02 65 1010.3
20260905203704 89 355 0.0 2.0 0.00 0.11 0.02 63 1010.3
20260905203204 89 36 0.0 1.0 0.00 0.11 0.02 64 1010.3
20260905202704 89 350 0.0 0.0 0.00 0.11 0.02 64 1010.4
20260905202204 89 350 0.0 2.0 0.00 0.11 0.02 63 1010.4
20260905201705 89 303 1.0 3.0 0.00 0.11 0.02 63 1010.4
20260905201204 89 6 0.0 2.0 0.00 0.11 0.02 62 1010.4
20260905200705 89 347 0.0 2.0 0.00 0.11 0.02 62 1010.5
20260905200203 89 243 0.0 0.0 0.00 0.11 0.02 62 1010.7
20260905195705 89 307 1.0 2.0 0.00 0.11 0.02 62 1010.7
20260905195204 89 350 1.0 5.0 0.00 0.11 0.02 61 1010.8
20260905194705 89 223 2.0 3.0 0.00 0.11 0.02 60 1010.9
20260905194204 89 225 0.0 2.0 0.00 0.11 0.02 60 1010.9
20260905193706 89 350 0.0 2.0 0.00 0.11 0.02 61 1010.9
20260905192705 89 352 0.0 0.0 0.00 0.11 0.02 60 1011.1
20260905192204 90 17 0.0 3.0 0.00 0.11 0.02 59 1011.1
20260905191704 90 18 1.0 3.0 0.00 0.11 0.02 59 1011.2
20260905191204 90 37 0.0 1.0 0.00 0.11 0.02 59 1011.2
20260905190704 89 299 1.0 2.0 0.00 0.11 0.02 59 1011.3
20260905190204 89 288 1.0 3.0 0.00 0.11 0.02 60 1011.3
20260905185704 89 250 1.0 2.0 0.00 0.11 0.02 60 1011.4
20260905185204 89 5 1.0 2.0 0.00 0.11 0.02 59 1011.6
20260905184704 89 5 0.0 0.0 0.00 0.11 0.02 59 1011.5
20260905183705 89 188 0.0 2.0 0.00 0.11 0.02 57 1011.8
20260905183202 90 323 1.0 6.0 0.00 0.11 0.02 58 1011.9
20260905182703 90 216 1.0 3.0 0.00 0.11 0.02 58 1011.8
20260905181703 90 349 0.0 1.0 0.00 0.11 0.02 58 1011.7
20260905181202 89 213 1.0 3.0 0.00 0.11 0.02 58 1011.7
20260905180703 89 276 1.0 3.0 0.00 0.11 0.02 58 1011.7
20260905180204 89 252 1.0 3.0 0.00 0.11 0.02 58 1011.7
20260905175203 89 185 0.0 5.0 0.00 0.11 0.02 59 1011.7
20260905174703 89 172 0.0 2.0 0.00 0.11 0.02 60 1011.6
20260905174203 88 240 1.0 5.0 0.00 0.11 0.02 58 1011.6
20260905173204 88 172 1.0 5.0 0.00 0.11 0.02 59 1011.5
20260905172703 88 282 2.0 6.0 0.00 0.11 0.02 61 1011.5
20260905172203 87 217 2.0 6.0 0.00 0.11 0.02 60 1011.6
20260905171703 87 236 1.0 3.0 0.00 0.11 0.02 60 1011.7
20260905171203 87 248 1.0 3.0 0.00 0.11 0.02 62 1011.8
20260905170703 86 210 0.0 3.0 0.00 0.11 0.02 61 1012.0
20260905165703 86 338 0.0 2.0 0.00 0.11 0.02 61 1012.1
20260905165203 86 318 1.0 2.0 0.00 0.11 0.02 63 1012.3
20260905163703 85 281 1.0 5.0 0.00 0.11 0.02 62 1012.5
20260905163203 85 272 1.0 3.0 0.00 0.11 0.02 63 1012.6
20260905162703 84 276 1.0 5.0 0.00 0.11 0.02 63 1012.5
20260905162203 84 167 1.0 2.0 0.00 0.11 0.02 65 1012.6
20260905161703 84 128 0.0 2.0 0.00 0.11 0.02 64 1012.5
20260905161203 83 101 1.0 2.0 0.00 0.11 0.02 64 1012.5
20260905160704 83 126 0.0 2.0 0.01 0.11 0.02 66 1012.5
20260905160203 82 241 1.0 5.0 0.01 0.11 0.02 65 1012.5
20260905155202 82 173 0.0 2.0 0.01 0.11 0.02 67 1012.5
20260905154704 81 161 3.0 8.0 0.01 0.11 0.02 67 1012.5
20260905154204 81 246 2.0 5.0 0.01 0.11 0.02 68 1012.5
20260905153702 80 225 1.0 7.0 0.01 0.11 0.02 70 1012.4
20260905153203 80 235 5.0 9.0 0.01 0.11 0.02 69 1012.3
20260905152703 80 113 1.0 5.0 0.01 0.11 0.02 70 1012.2
20260905152202 80 216 3.0 9.0 0.01 0.11 0.02 71 1012.2
20260905151703 79 174 2.0 7.0 0.01 0.11 0.02 72 1012.2
20260905151202 79 234 3.0 7.0 0.01 0.11 0.02 70 1012.3
20260905150703 79 217 4.0 8.0 0.00 0.10 0.01 71 1012.3
20260905150203 79 176 0.0 6.0 0.00 0.10 0.01 72 1012.3
20260905145702 78 213 4.0 8.0 0.00 0.10 0.01 72 1012.3
20260905145204 78 219 3.0 7.0 0.00 0.10 0.01 72 1012.3
20260905143703 78 232 0.0 2.0 0.00 0.10 0.01 74 1012.2
20260905143202 77 170 0.0 3.0 0.00 0.10 0.01 74 1012.2
20260905142703 77 223 1.0 3.0 0.00 0.10 0.01 74 1012.2
20260905142203 77 231 1.0 3.0 0.00 0.10 0.01 75 1012.2
20260905141703 76 189 1.0 6.0 0.00 0.10 0.01 75 1012.3
20260905141203 76 229 2.0 6.0 0.00 0.10 0.01 76 1012.5
20260905140703 76 172 1.0 3.0 0.00 0.10 0.01 77 1012.5
20260905140203 75 213 1.0 5.0 0.00 0.10 0.01 77 1012.6
20260905135203 74 213 1.0 5.0 0.00 0.10 0.01 79 1013.3
20260905134704 74 198 0.0 5.0 0.00 0.10 0.01 79 1013.3
20260905134203 73 184 0.0 3.0 0.00 0.10 0.01 80 1013.6
20260905133703 73 62 0.0 2.0 0.00 0.10 0.01 81 1013.7
20260905133202 73 49 1.0 3.0 0.00 0.10 0.01 81 1013.7
20260905132203 72 36 1.0 5.0 0.00 0.10 0.01 82 1013.7
20260905131703 72 141 0.0 2.0 0.00 0.10 0.01 83 1013.8
20260905131203 72 111 0.0 1.0 0.00 0.10 0.01 83 1014.0
20260905130703 72 112 0.0 2.0 0.00 0.10 0.01 82 1014.0
20260905130204 71 99 0.0 3.0 0.00 0.10 0.01 82 1013.8
20260905125703 71 78 1.0 6.0 0.00 0.10 0.01 82 1013.7
20260905125203 71 90 0.0 3.0 0.00 0.10 0.01 83 1013.6
20260905124703 71 25 0.0 0.0 0.00 0.10 0.01 84 1013.6
20260905123204 70 78 0.0 0.0 0.00 0.10 0.01 85 1013.7
20260905122203 70 58 0.0 0.0 0.00 0.10 0.01 86 1013.7
20260905121703 70 17 0.0 0.0 0.00 0.10 0.01 86 1013.7
20260905121202 70 61 0.0 0.0 0.00 0.10 0.01 85 1013.7
20260905120703 70 96 0.0 2.0 0.01 0.10 0.01 85 1013.6
20260905120203 70 81 0.0 1.0 0.01 0.10 0.01 86 1013.5
20260905115703 70 130 0.0 0.0 0.01 0.10 0.01 86 1013.6
20260905115203 70 43 0.0 0.0 0.01 0.10 0.01 86 1013.7
20260905114703 70 15 0.0 3.0 0.01 0.10 0.01 86 1013.6